Location: ????????
(54.6123°N, 39.2099°E)
Time: 11:55:43
(UTC+00:00)

Cosmos 2237 - Pass Details

Date: 19 May 2025
Orbit: 848 x 854 km, 70.8° (Epoch: 13 June)

Event Time Altitude Azimuth Distance (km) Brightness Sun altitude
Rises 19:23:07 0° 326° (NW) 3,424 9.5 -11.4°
Reaches altitude 10° 19:25:36 10° 329° (NNW) 2,485 8.2 -11.5°
Maximum altitude 19:31:18 68° 52° (NE) 917 4.4 -11.9°
Enters shadow 19:36:07 15° 134° (SE) 2,160 5.8 -12.2°
